Total_Precipitation_Accumulation
2.14 2.81 3.49 4.06 4.73 5.47 6.01 5.87 5.23 4.70 4.09 3.54 2.95 2.79 2.51 2.23 1.97 1.76 1.56 1.53 1.45 1.24 1.19 1.08 1.17 1.00 1.01 1.02 1.04 1.19 1.25 1.20 1.24 1.55 1.64 1.39 1.19 1.26 1.29 1.26 1.46 1.50 1.46
2.09 2.88 3.49 3.69 3.70 3.96 4.20 3.71 3.48 3.43 3.02 2.68 2.55 2.39 2.18 1.92 1.69 1.56 1.49 1.26 1.20 1.14 1.08 1.15 1.08 1.03 1.07 1.02 1.04 1.17 1.23 1.20 1.23 1.40 1.56 1.43 1.50 1.41 1.10 1.31 1.40 1.43 1.59
2.21 2.73 2.89 2.90 2.79 2.77 2.75 2.51 2.43 2.69 2.59 2.51 2.42 2.33 2.24 2.12 1.86 1.52 1.43 1.19 1.04 1.03 1.08 1.08 1.10 1.11 0.94 1.02 1.08 1.06 1.11 1.13 1.10 1.14 1.36 1.41 1.46 1.32 1.11 1.16 1.22 1.33 1.55
2.17 2.17 1.78 1.66 1.81 1.89 1.97 2.19 2.26 2.36 2.26 2.28 2.07 1.85 1.67 1.52 1.40 1.34 1.32 1.30 1.14 1.03 0.96 1.00 1.13 1.12 0.98 1.10 0.86 0.93 1.08 1.12 0.98 0.97 0.99 1.02 1.18 1.31 1.33 1.21 1.16 1.22 1.30
1.23 1.03 0.89 0.97 1.20 1.45 1.67 2.03 2.12 2.12 2.01 1.95 1.95 1.95 1.81 1.72 1.58 1.52 1.56 1.53 1.50 1.30 1.07 0.99 1.11 1.18 1.13 1.16 1.05 1.19 1.06 0.97 0.90 0.91 0.99 1.04 0.99 0.96 1.19 1.29 1.24 1.21 1.06
0.60 0.62 0.70 0.89 1.13 1.29 1.39 1.58 1.74 1.92 1.97 1.99 2.04 1.97 1.90 1.90 1.70 1.54 1.44 1.42 1.43 1.36 1.25 1.16 1.26 1.27 1.22 1.22 1.13 1.18 1.14 1.09 1.05 0.93 0.92 1.11 1.08 0.96 1.10 1.07 1.08 1.07 0.84
0.43 0.60 0.66 0.86 0.97 1.09 1.11 1.20 1.32 1.52 1.64 1.73 1.86 1.89 1.89 1.89 1.68 1.54 1.41 1.36 1.26 1.18 1.25 1.29 1.38 1.30 1.29 1.22 1.20 1.22 1.22 1.28 1.27 1.08 0.91 0.92 1.02 1.01 1.01 1.01 0.94 0.95 0.89
0.30 0.35 0.38 0.48 0.62 0.79 0.98 1.12 1.16 1.18 1.20 1.27 1.46 1.64 1.66 1.67 1.60 1.61 1.39 1.29 1.21 1.20 1.30 1.36 1.26 1.23 1.22 1.15 1.22 1.14 1.10 1.15 1.20 1.11 1.24 1.20 0.99 1.08 1.10 1.13 1.24 1.23 1.19
0.29 0.26 0.25 0.32 0.41 0.46 0.62 0.83 0.92 0.92 0.94 1.01 1.16 1.27 1.32 1.42 1.52 1.48 1.32 1.17 1.19 1.21 1.23 1.16 1.15 1.17 1.17 1.22 1.30 1.23 1.17 1.19 1.09 1.11 1.38 1.34 1.09 1.08 1.15 1.19 1.32 1.54 1.48
0.24 0.26 0.27 0.27 0.30 0.32 0.45 0.62 0.76 0.80 0.83 0.88 0.94 0.94 1.07 1.18 1.30 1.33 1.29 1.16 1.12 1.18 1.21 1.16 1.15 1.14 1.06 1.10 1.24 1.21 1.23 1.29 1.24 1.23 1.28 1.32 1.25 1.23 1.26 1.30 1.38 1.57 1.59
0.26 0.30 0.26 0.30 0.26 0.25 0.33 0.46 0.63 0.72 0.69 0.72 0.79 0.88 0.98 1.15 1.23 1.23 1.26 1.21 1.17 1.19 1.20 1.18 1.19 1.17 1.12 1.13 1.20 1.15 1.23 1.31 1.40 1.41 1.35 1.34 1.43 1.47 1.39 1.40 1.44 1.56 1.71
0.30 0.29 0.25 0.28 0.22 0.23 0.30 0.38 0.46 0.55 0.60 0.67 0.77 0.86 0.94 1.05 1.17 1.15 1.20 1.26 1.23 1.20 1.16 1.15 1.21 1.14 1.13 1.18 1.12 1.12 1.20 1.32 1.38 1.46 1.59 1.61 1.59 1.53 1.47 1.51 1.54 1.65 1.87
0.34 0.28 0.31 0.32 0.25 0.25 0.29 0.36 0.46 0.57 0.65 0.72 0.84 0.87 0.84 0.91 1.06 1.13 1.16 1.21 1.25 1.27 1.24 1.18 1.18 1.19 1.22 1.24 1.12 1.10 1.13 1.13 1.14 1.26 1.51 1.75 1.97 1.86 1.69 1.60 1.57 1.63 1.73
0.27 0.28 0.29 0.31 0.34 0.34 0.37 0.44 0.56 0.62 0.69 0.65 0.71 0.79 0.83 0.97 1.11 1.16 1.17 1.19 1.19 1.24 1.30 1.31 1.29 1.27 1.24 1.20 1.19 1.23 1.21 1.17 1.11 1.15 1.27 1.41 1.61 1.78 1.87 1.71 1.57 1.57 1.69
0.30 0.31 0.33 0.32 0.34 0.39 0.42 0.48 0.60 0.62 0.67 0.80 0.88 0.96 0.98 1.06 1.20 1.28 1.24 1.26 1.28 1.28 1.42 1.49 1.47 1.42 1.37 1.25 1.30 1.38 1.28 1.30 1.25 1.22 1.21 1.18 1.26 1.40 1.54 1.56 1.67 1.69 1.69
0.34 0.38 0.41 0.41 0.39 0.42 0.48 0.54 0.61 0.69 0.85 1.14 1.25 1.25 1.30 1.34 1.36 1.37 1.35 1.40 1.47 1.61 1.66 1.64 1.61 1.58 1.42 1.46 1.41 1.38 1.38 1.44 1.44 1.40 1.34 1.23 1.15 1.18 1.27 1.31 1.41 1.54 1.61
0.40 0.45 0.55 0.59 0.55 0.54 0.57 0.60 0.64 0.71 0.89 1.12 1.25 1.35 1.38 1.41 1.47 1.48 1.51 1.53 1.59 1.67 1.73 1.80 1.80 1.78 1.81 1.70 1.43 1.37 1.38 1.47 1.51 1.58 1.60 1.32 1.11 1.17 1.14 1.23 1.23 1.24 1.35
0.51 0.58 0.59 0.68 0.71 0.72 0.72 0.79 0.87 0.97 1.07 1.17 1.29 1.44 1.50 1.54 1.57 1.56 1.49 1.47 1.51 1.51 1.48 1.47 1.47 1.55 1.56 1.49 1.28 1.21 1.15 1.27 1.33 1.33 1.33 1.29 1.15 1.06 1.05 1.07 1.03 1.01 1.02
0.60 0.69 0.77 0.79 0.85 0.95 0.99 1.00 1.10 1.22 1.27 1.32 1.46 1.57 1.66 1.74 1.67 1.56 1.52 1.45 1.44 1.35 1.28 1.25 1.25 1.28 1.33 1.31 1.15 1.09 1.02 1.07 1.09 1.08 1.11 1.15 1.07 1.03 0.89 0.87 0.89 0.88 0.86
0.64 0.68 0.83 0.98 0.98 1.07 1.16 1.21 1.23 1.25 1.30 1.32 1.40 1.52 1.61 1.74 1.78 1.68 1.61 1.55 1.56 1.50 1.42 1.34 1.31 1.31 1.39 1.42 1.20 1.12 1.06 1.12 1.14 1.21 1.22 1.18 1.05 0.96 0.78 0.75 0.80 0.77 0.72
0.64 0.66 0.73 0.89 0.96 1.03 1.12 1.24 1.27 1.22 1.22 1.20 1.20 1.31 1.46 1.60 1.66 1.66 1.61 1.63 1.60 1.52 1.39 1.29 1.24 1.24 1.30 1.39 1.24 1.12 1.02 1.07 1.15 1.23 1.30 1.24 1.09 0.83 0.67 0.60 0.61 0.58 0.59
0.63 0.67 0.71 0.78 0.90 1.05 1.24 1.37 1.36 1.31 1.29 1.30 1.37 1.41 1.44 1.43 1.40 1.42 1.42 1.48 1.53 1.49 1.40 1.23 1.09 1.06 1.04 1.02 1.03 0.88 0.79 0.84 0.95 1.08 1.21 1.22 1.05 0.82 0.65 0.54 0.49 0.45 0.44
0.68 0.66 0.73 0.80 0.94 1.13 1.33 1.53 1.53 1.51 1.49 1.48 1.48 1.48 1.48 1.46 1.44 1.40 1.38 1.36 1.32 1.25 1.17 1.05 1.03 1.03 0.99 0.92 0.83 0.68 0.58 0.61 0.72 0.86 1.12 1.20 1.08 0.92 0.76 0.67 0.61 0.51 0.43
0.72 0.71 0.73 0.79 0.90 0.99 1.12 1.31 1.40 1.42 1.49 1.45 1.36 1.27 1.24 1.21 1.23 1.27 1.29 1.30 1.26 1.22 1.14 1.04 1.05 1.03 0.99 0.89 0.81 0.73 0.63 0.64 0.74 0.79 0.96 1.09 1.11 1.00 0.91 0.81 0.68 0.57 0.52
0.79 0.77 0.78 0.81 0.84 0.90 0.95 1.05 1.17 1.27 1.41 1.47 1.41 1.36 1.30 1.24 1.23 1.28 1.35 1.28 1.22 1.20 1.12 1.04 1.09 1.09 1.02 0.98 0.93 0.89 0.86 0.84 0.88 0.85 0.91 1.03 1.12 1.13 1.09 1.06 0.95 0.83 0.75
0.77 0.82 0.87 0.89 0.86 0.88 0.95 1.03 1.15 1.31 1.47 1.48 1.40 1.39 1.39 1.36 1.32 1.29 1.30 1.33 1.17 1.13 1.06 1.04 1.05 1.06 0.99 0.89 0.75 0.73 0.72 0.65 0.61 0.60 0.73 0.90 1.06 1.18 1.22 1.25 1.18 1.06 0.95